Time,TemperatureF,DewpointF,PressureIn,WindDirection,WindDirectionDegrees,WindSpeedMPH,WindSpeedGustMPH,Humidity,HourlyPrecipIn,Conditions,Clouds,dailyrainin,SoftwareType,DateUTC
2013-01-12 00:03:00,46.0,45.0,-100.00,South,190,6.0,8.0,94,-99.99,,,-99.99,,2013-01-12 05:03:00,
2013-01-12 00:12:00,46.0,44.0,-100.00,SSW,195,6.0,8.0,95,-99.99,,,-99.99,,2013-01-12 05:12:00,
2013-01-12 00:22:00,46.0,44.0,-100.00,SSW,195,6.0,7.0,95,-99.99,,,-99.99,,2013-01-12 05:22:00,
2013-01-12 00:32:00,46.0,44.0,-100.00,SSW,195,6.0,9.0,95,-99.99,,,-99.99,,2013-01-12 05:32:00,
2013-01-12 00:42:00,45.0,44.0,-100.00,SSW,195,5.0,9.0,95,-99.99,,,-99.99,,2013-01-12 05:42:00,
2013-01-12 00:52:00,45.0,44.0,-100.00,South,185,6.0,9.0,95,-99.99,,,-99.99,,2013-01-12 05:52:00,
2013-01-12 01:02:00,45.0,44.0,-100.00,South,190,6.0,10.0,95,-99.99,,,-99.99,,2013-01-12 06:02:00,
2013-01-12 01:12:00,45.0,44.0,-100.00,SSW,210,6.0,10.0,95,-99.99,,,-99.99,,2013-01-12 06:12:00,
2013-01-12 01:22:00,46.0,45.0,-100.00,SSW,200,6.0,10.0,95,-99.99,,,-99.99,,2013-01-12 06:22:00,
2013-01-12 01:33:00,45.0,44.0,-100.00,South,190,7.0,9.0,96,-99.99,,,-99.99,,2013-01-12 06:33:00,
2013-01-12 01:42:00,45.0,44.0,-100.00,South,190,6.0,10.0,96,-99.99,,,-99.99,,2013-01-12 06:42:00,
2013-01-12 01:50:00,45.0,44.0,-100.00,SSW,210,6.0,9.0,96,-99.99,,,-99.99,,2013-01-12 06:50:00,
2013-01-12 01:52:00,45.0,44.0,-100.00,SSW,200,6.0,9.0,96,-99.99,,,-99.99,,2013-01-12 06:52:00,
2013-01-12 02:02:00,45.0,44.0,-100.00,SSW,200,6.0,9.0,96,-99.99,,,-99.99,,2013-01-12 07:02:00,
2013-01-12 02:12:00,45.0,44.0,-100.00,SSW,210,6.0,9.0,96,-99.99,,,-99.99,,2013-01-12 07:12:00,
2013-01-12 02:22:00,45.0,44.0,-100.00,SSW,210,6.0,9.0,96,-99.99,,,-99.99,,2013-01-12 07:22:00,
2013-01-12 02:32:00,45.0,44.0,-100.00,SSW,210,6.0,9.0,96,-99.99,,,-99.99,,2013-01-12 07:32:00,
2013-01-12 02:42:00,45.0,44.0,-100.00,SSW,210,6.0,9.0,96,-99.99,,,-99.99,,2013-01-12 07:42:00,
2013-01-12 03:12:00,46.0,46.0,-100.00,WSW,245,4.0,11.0,96,-99.99,,,-99.99,,2013-01-12 08:12:00,
2013-01-12 03:22:00,46.0,46.0,-100.00,WSW,245,4.0,11.0,96,-99.99,,,-99.99,,2013-01-12 08:22:00,
2013-01-12 03:32:00,46.0,46.0,-100.00,WSW,245,4.0,11.0,96,-99.99,,,-99.99,,2013-01-12 08:32:00,
2013-01-12 03:42:00,46.0,46.0,-100.00,WSW,245,4.0,11.0,96,-99.99,,,-99.99,,2013-01-12 08:42:00,
2013-01-12 03:52:00,48.0,47.0,-100.00,SW,235,8.0,16.0,94,-99.99,,,-99.99,,2013-01-12 08:52:00,
2013-01-12 04:02:00,48.0,46.0,-100.00,SW,220,7.0,12.0,92,-99.99,,,-99.99,,2013-01-12 09:02:00,
2013-01-12 04:12:00,48.0,46.0,-100.00,WSW,240,6.0,12.0,90,-99.99,,,-99.99,,2013-01-12 09:12:00,
2013-01-12 04:22:00,48.0,46.0,-100.00,WSW,240,6.0,12.0,90,-99.99,,,-99.99,,2013-01-12 09:22:00,
2013-01-12 04:32:00,48.0,46.0,-100.00,SW,230,7.0,11.0,89,-99.99,,,-99.99,,2013-01-12 09:32:00,
2013-01-12 04:42:00,49.0,45.0,-100.00,SW,220,7.0,11.0,88,-99.99,,,-99.99,,2013-01-12 09:42:00,
2013-01-12 04:53:00,49.0,45.0,-100.00,SW,225,7.0,12.0,86,-99.99,,,-99.99,,2013-01-12 09:53:00,
2013-01-12 05:02:00,49.0,45.0,-100.00,SW,215,7.0,10.0,86,-99.99,,,-99.99,,2013-01-12 10:02:00,
2013-01-12 05:12:00,49.0,45.0,-100.00,SW,215,6.0,11.0,86,-99.99,,,-99.99,,2013-01-12 10:12:00,
2013-01-12 05:22:00,49.0,45.0,-100.00,SSW,210,8.0,11.0,85,-99.99,,,-99.99,,2013-01-12 10:22:00,
2013-01-12 05:32:00,49.0,45.0,-100.00,SSW,200,6.0,10.0,85,-99.99,,,-99.99,,2013-01-12 10:32:00,
2013-01-12 05:42:00,49.0,45.0,-100.00,SSW,205,6.0,10.0,85,-99.99,,,-99.99,,2013-01-12 10:42:00,
2013-01-12 05:52:00,48.0,44.0,-100.00,SW,215,4.0,8.0,85,-99.99,,,-99.99,,2013-01-12 10:52:00,
2013-01-12 06:02:00,48.0,44.0,-100.00,SSW,195,6.0,9.0,86,-99.99,,,-99.99,,2013-01-12 11:02:00,
2013-01-12 06:12:00,48.0,44.0,-100.00,SSW,205,6.0,10.0,87,-99.99,,,-99.99,,2013-01-12 11:12:00,
2013-01-12 06:22:00,48.0,44.0,-100.00,SSW,205,7.0,12.0,87,-99.99,,,-99.99,,2013-01-12 11:22:00,
2013-01-12 06:33:00,48.0,45.0,-100.00,SW,220,6.0,12.0,87,-99.99,,,-99.99,,2013-01-12 11:33:00,
2013-01-12 06:42:00,48.0,45.0,-100.00,SSW,205,6.0,11.0,87,-99.99,,,-99.99,,2013-01-12 11:42:00,
2013-01-12 06:52:00,48.0,45.0,-100.00,SSW,210,6.0,10.0,87,-99.99,,,-99.99,,2013-01-12 11:52:00,
2013-01-12 07:03:00,48.0,44.0,-100.00,SW,215,6.0,10.0,87,-99.99,,,-99.99,,2013-01-12 12:03:00,
2013-01-12 07:12:00,48.0,44.0,-100.00,SSW,200,7.0,11.0,87,-99.99,,,-99.99,,2013-01-12 12:12:00,
2013-01-12 07:22:00,48.0,44.0,-100.00,SSW,205,5.0,10.0,88,-99.99,,,-99.99,,2013-01-12 12:22:00,
2013-01-12 07:33:00,48.0,44.0,-100.00,SSW,210,7.0,10.0,88,-99.99,,,-99.99,,2013-01-12 12:33:00,
2013-01-12 07:42:00,48.0,45.0,-100.00,SSW,210,7.0,14.0,88,-99.99,,,-99.99,,2013-01-12 12:42:00,
2013-01-12 07:52:00,48.0,45.0,-100.00,SW,225,6.0,12.0,88,-99.99,,,-99.99,,2013-01-12 12:52:00,
2013-01-12 08:02:00,48.0,45.0,-100.00,SW,220,7.0,12.0,88,-99.99,,,-99.99,,2013-01-12 13:02:00,
2013-01-12 08:12:00,48.0,45.0,-100.00,SW,220,8.0,12.0,88,-99.99,,,-99.99,,2013-01-12 13:12:00,
2013-01-12 08:22:00,48.0,45.0,-100.00,SW,220,7.0,14.0,88,-99.99,,,-99.99,,2013-01-12 13:22:00,
2013-01-12 08:33:00,49.0,45.0,-100.00,SW,225,10.0,15.0,88,-99.99,,,-99.99,,2013-01-12 13:33:00,
2013-01-12 08:42:00,49.0,46.0,-100.00,SW,230,9.0,12.0,88,-99.99,,,-99.99,,2013-01-12 13:42:00,
2013-01-12 08:53:00,49.0,46.0,-100.00,WSW,240,6.0,11.0,87,-99.99,,,-99.99,,2013-01-12 13:53:00,
2013-01-12 09:02:00,49.0,46.0,-100.00,WSW,245,6.0,12.0,87,-99.99,,,-99.99,,2013-01-12 14:02:00,
2013-01-12 09:12:00,49.0,46.0,-100.00,SW,235,4.0,11.0,87,-99.99,,,-99.99,,2013-01-12 14:12:00,
2013-01-12 09:22:00,49.0,46.0,-100.00,WSW,240,4.0,10.0,87,-99.99,,,-99.99,,2013-01-12 14:22:00,
2013-01-12 09:33:00,50.0,46.0,-100.00,SW,225,5.0,9.0,87,-99.99,,,-99.99,,2013-01-12 14:33:00,
2013-01-12 09:43:00,50.0,46.0,-100.00,SW,235,7.0,9.0,86,-99.99,,,-99.99,,2013-01-12 14:43:00,
2013-01-12 09:53:00,50.0,46.0,-100.00,SW,225,8.0,12.0,86,-99.99,,,-99.99,,2013-01-12 14:53:00,
2013-01-12 10:03:00,50.0,46.0,-100.00,SW,225,8.0,12.0,86,-99.99,,,-99.99,,2013-01-12 15:03:00,
2013-01-12 10:12:00,52.0,47.0,-100.00,SW,235,6.0,14.0,83,-99.99,,,-99.99,,2013-01-12 15:12:00,
2013-01-12 10:22:00,53.0,47.0,-100.00,SW,230,9.0,16.0,81,-99.99,,,-99.99,,2013-01-12 15:22:00,
2013-01-12 10:33:00,54.0,48.0,-100.00,WSW,250,7.0,14.0,79,-99.99,,,-99.99,,2013-01-12 15:33:00,
2013-01-12 10:43:00,55.0,47.0,-100.00,WSW,240,9.0,15.0,76,-99.99,,,-99.99,,2013-01-12 15:43:00,
2013-01-12 10:53:00,55.0,47.0,-100.00,SW,230,9.0,17.0,75,-99.99,,,-99.99,,2013-01-12 15:53:00,
2013-01-12 11:03:00,55.0,47.0,-100.00,SW,225,9.0,14.0,75,-99.99,,,-99.99,,2013-01-12 16:03:00,
2013-01-12 11:12:00,55.0,47.0,-100.00,SW,220,9.0,17.0,76,-99.99,,,-99.99,,2013-01-12 16:12:00,
2013-01-12 11:23:00,55.0,47.0,-100.00,SW,225,7.0,13.0,76,-99.99,,,-99.99,,2013-01-12 16:23:00,
2013-01-12 11:33:00,55.0,47.0,-100.00,SW,230,8.0,13.0,75,-99.99,,,-99.99,,2013-01-12 16:33:00,
2013-01-12 11:42:00,55.0,48.0,-100.00,SW,220,9.0,14.0,75,-99.99,,,-99.99,,2013-01-12 16:42:00,
2013-01-12 11:53:00,55.0,47.0,-100.00,SW,220,11.0,16.0,74,-99.99,,,-99.99,,2013-01-12 16:53:00,
2013-01-12 12:02:00,56.0,48.0,-100.00,WSW,240,6.0,14.0,74,-99.99,,,-99.99,,2013-01-12 17:02:00,
2013-01-12 12:12:00,57.0,49.0,-100.00,WSW,240,6.0,14.0,74,-99.99,,,-99.99,,2013-01-12 17:12:00,
2013-01-12 12:23:00,57.0,48.0,-100.00,WSW,240,7.0,12.0,73,-99.99,,,-99.99,,2013-01-12 17:23:00,
2013-01-12 12:33:00,57.0,48.0,-100.00,WSW,240,7.0,12.0,73,-99.99,,,-99.99,,2013-01-12 17:33:00,
2013-01-12 12:43:00,57.0,48.0,-100.00,SW,225,9.0,14.0,71,-99.99,,,-99.99,,2013-01-12 17:43:00,
2013-01-12 12:53:00,57.0,48.0,-100.00,SW,235,7.0,14.0,70,-99.99,,,-99.99,,2013-01-12 17:53:00,
2013-01-12 13:03:00,57.0,48.0,-100.00,SW,235,9.0,16.0,70,-99.99,,,-99.99,,2013-01-12 18:03:00,
2013-01-12 13:12:00,57.0,47.0,-100.00,SW,230,11.0,15.0,70,-99.99,,,-99.99,,2013-01-12 18:12:00,
2013-01-12 13:23:00,58.0,48.0,-100.00,WSW,240,7.0,16.0,70,-99.99,,,-99.99,,2013-01-12 18:23:00,
2013-01-12 13:33:00,59.0,48.0,-100.00,SW,235,9.0,16.0,68,-99.99,,,-99.99,,2013-01-12 18:33:00,
2013-01-12 13:42:00,58.0,48.0,-100.00,SW,230,10.0,16.0,68,-99.99,,,-99.99,,2013-01-12 18:42:00,
2013-01-12 13:52:00,58.0,48.0,-100.00,SSW,210,9.0,16.0,69,-99.99,,,-99.99,,2013-01-12 18:52:00,
2013-01-12 14:03:00,59.0,49.0,-100.00,SW,230,6.0,13.0,67,-99.99,,,-99.99,,2013-01-12 19:03:00,
2013-01-12 14:12:00,60.0,49.0,-100.00,SW,230,9.0,15.0,64,-99.99,,,-99.99,,2013-01-12 19:12:00,
2013-01-12 14:23:00,60.0,48.0,-100.00,WSW,240,11.0,15.0,63,-99.99,,,-99.99,,2013-01-12 19:23:00,
2013-01-12 14:33:00,60.0,48.0,-100.00,SW,235,7.0,14.0,64,-99.99,,,-99.99,,2013-01-12 19:33:00,
2013-01-12 14:43:00,60.0,48.0,-100.00,SW,220,9.0,17.0,64,-99.99,,,-99.99,,2013-01-12 19:43:00,
2013-01-12 14:52:00,60.0,48.0,-100.00,SSW,210,11.0,14.0,62,-99.99,,,-99.99,,2013-01-12 19:52:00,
2013-01-12 15:03:00,61.0,48.0,-100.00,SW,230,9.0,16.0,62,-99.99,,,-99.99,,2013-01-12 20:03:00,
2013-01-12 15:12:00,61.0,48.0,-100.00,SSW,200,7.0,12.0,60,-99.99,,,-99.99,,2013-01-12 20:12:00,
2013-01-12 15:22:00,61.0,47.0,-100.00,SW,215,7.0,11.0,61,-99.99,,,-99.99,,2013-01-12 20:22:00,
2013-01-12 15:33:00,60.0,47.0,-100.00,SW,230,6.0,10.0,61,-99.99,,,-99.99,,2013-01-12 20:33:00,
2013-01-12 15:42:00,60.0,47.0,-100.00,SSW,205,6.0,9.0,62,-99.99,,,-99.99,,2013-01-12 20:42:00,
2013-01-12 15:53:00,60.0,48.0,-100.00,SSW,205,4.0,9.0,65,-99.99,,,-99.99,,2013-01-12 20:53:00,
2013-01-12 16:03:00,59.0,48.0,-100.00,SSW,210,7.0,11.0,67,-99.99,,,-99.99,,2013-01-12 21:03:00,
2013-01-12 16:12:00,58.0,48.0,-100.00,SSW,195,7.0,10.0,68,-99.99,,,-99.99,,2013-01-12 21:12:00,
2013-01-12 16:22:00,58.0,48.0,-100.00,SSW,210,6.0,9.0,70,-99.99,,,-99.99,,2013-01-12 21:22:00,
2013-01-12 16:33:00,58.0,48.0,-100.00,SW,215,6.0,9.0,70,-99.99,,,-99.99,,2013-01-12 21:33:00,
2013-01-12 16:43:00,57.0,48.0,-100.00,SW,215,2.0,7.0,71,-99.99,,,-99.99,,2013-01-12 21:43:00,
2013-01-12 16:52:00,57.0,48.0,-100.00,SSW,210,4.0,6.0,72,-99.99,,,-99.99,,2013-01-12 21:52:00,
2013-01-12 17:03:00,57.0,48.0,-100.00,SSW,210,6.0,9.0,73,-99.99,,,-99.99,,2013-01-12 22:03:00,
2013-01-12 17:12:00,56.0,48.0,-100.00,SW,225,6.0,9.0,74,-99.99,,,-99.99,,2013-01-12 22:12:00,
2013-01-12 17:23:00,56.0,48.0,-100.00,SSW,200,4.0,7.0,75,-99.99,,,-99.99,,2013-01-12 22:23:00,
2013-01-12 17:33:00,56.0,49.0,-100.00,SW,215,4.0,6.0,76,-99.99,,,-99.99,,2013-01-12 22:33:00,
2013-01-12 17:43:00,56.0,49.0,-100.00,South,175,4.0,6.0,77,-99.99,,,-99.99,,2013-01-12 22:43:00,
2013-01-12 17:52:00,55.0,48.0,-100.00,South,175,4.0,6.0,78,-99.99,,,-99.99,,2013-01-12 22:52:00,
2013-01-12 18:03:00,55.0,48.0,-100.00,South,180,2.0,4.0,80,-99.99,,,-99.99,,2013-01-12 23:03:00,
2013-01-12 18:12:00,54.0,49.0,-100.00,South,185,4.0,5.0,81,-99.99,,,-99.99,,2013-01-12 23:12:00,
2013-01-12 18:22:00,53.0,48.0,-100.00,South,185,2.0,4.0,82,-99.99,,,-99.99,,2013-01-12 23:22:00,
2013-01-12 18:33:00,53.0,49.0,-100.00,South,175,1.0,4.0,84,-99.99,,,-99.99,,2013-01-12 23:33:00,
2013-01-12 18:43:00,53.0,49.0,-100.00,South,170,2.0,3.0,85,-99.99,,,-99.99,,2013-01-12 23:43:00,
2013-01-12 18:53:00,52.0,48.0,-100.00,SSW,205,1.0,2.0,86,-99.99,,,-99.99,,2013-01-12 23:53:00,
2013-01-12 19:03:00,52.0,48.0,-100.00,South,175,2.0,3.0,87,-99.99,,,-99.99,,2013-01-13 00:03:00,
2013-01-12 19:12:00,51.0,48.0,-100.00,South,175,2.0,2.0,88,-99.99,,,-99.99,,2013-01-13 00:12:00,
2013-01-12 19:23:00,51.0,48.0,-100.00,South,190,0.0,2.0,89,-99.99,,,-99.99,,2013-01-13 00:23:00,
2013-01-12 19:33:00,50.0,47.0,-100.00,NW,305,1.0,1.0,89,-99.99,,,-99.99,,2013-01-13 00:33:00,
2013-01-12 19:43:00,50.0,48.0,-100.00,NW,305,0.0,1.0,90,-99.99,,,-99.99,,2013-01-13 00:43:00,
2013-01-12 19:52:00,50.0,48.0,-100.00,South,170,0.0,0.0,91,-99.99,,,-99.99,,2013-01-13 00:52:00,
2013-01-12 20:03:00,50.0,48.0,-100.00,South,180,1.0,1.0,91,-99.99,,,-99.99,,2013-01-13 01:03:00,
2013-01-12 20:12:00,50.0,48.0,-100.00,West,280,0.0,1.0,92,-99.99,,,-99.99,,2013-01-13 01:12:00,
2013-01-12 20:23:00,50.0,47.0,-100.00,NW,315,1.0,2.0,92,-99.99,,,-99.99,,2013-01-13 01:23:00,
2013-01-12 20:33:00,49.0,47.0,-100.00,NW,320,2.0,3.0,92,-99.99,,,-99.99,,2013-01-13 01:33:00,
2013-01-12 20:43:00,49.0,47.0,-100.00,North,355,1.0,2.0,93,-99.99,,,-99.99,,2013-01-13 01:43:00,
2013-01-12 20:52:00,49.0,48.0,-100.00,North,355,1.0,3.0,93,-99.99,,,-99.99,,2013-01-13 01:52:00,
2013-01-12 21:02:00,50.0,48.0,-100.00,North,5,1.0,2.0,94,-99.99,,,-99.99,,2013-01-13 02:02:00,
2013-01-12 21:12:00,49.0,48.0,-100.00,NNE,30,0.0,1.0,94,-99.99,,,-99.99,,2013-01-13 02:12:00,
2013-01-12 21:22:00,49.0,48.0,-100.00,NNE,30,0.0,1.0,94,-99.99,,,-99.99,,2013-01-13 02:22:00,
2013-01-12 21:33:00,49.0,48.0,-100.00,NNE,30,0.0,1.0,94,-99.99,,,-99.99,,2013-01-13 02:33:00,
2013-01-12 21:43:00,49.0,48.0,-100.00,North,0,2.0,2.0,94,-99.99,,,-99.99,,2013-01-13 02:43:00,
2013-01-12 21:52:00,49.0,47.0,-100.00,North,5,2.0,3.0,94,-99.99,,,-99.99,,2013-01-13 02:52:00,
2013-01-12 22:03:00,49.0,47.0,-100.00,North,0,0.0,3.0,94,-99.99,,,-99.99,,2013-01-13 03:03:00,
2013-01-12 22:12:00,49.0,47.0,-100.00,NNW,340,0.0,2.0,94,-99.99,,,-99.99,,2013-01-13 03:12:00,
2013-01-12 22:22:00,49.0,47.0,-100.00,NNE,15,1.0,2.0,95,-99.99,,,-99.99,,2013-01-13 03:22:00,
2013-01-12 22:33:00,49.0,47.0,-100.00,NNE,15,2.0,4.0,95,-99.99,,,-99.99,,2013-01-13 03:33:00,
2013-01-12 22:43:00,49.0,48.0,-100.00,NNE,15,3.0,5.0,95,-99.99,,,-99.99,,2013-01-13 03:43:00,
2013-01-12 22:52:00,49.0,48.0,-100.00,North,5,2.0,4.0,95,-99.99,,,-99.99,,2013-01-13 03:52:00,
2013-01-12 23:03:00,50.0,49.0,-100.00,NNE,25,5.0,6.0,95,-99.99,,,-99.99,,2013-01-13 04:03:00,
2013-01-12 23:12:00,50.0,49.0,-100.00,NE,45,7.0,10.0,96,-99.99,,,-99.99,,2013-01-13 04:12:00,
2013-01-12 23:22:00,50.0,49.0,-100.00,NE,45,6.0,10.0,96,-99.99,,,-99.99,,2013-01-13 04:22:00,
2013-01-12 23:33:00,50.0,49.0,-100.00,NE,45,6.0,10.0,96,-99.99,,,-99.99,,2013-01-13 04:33:00,
2013-01-12 23:42:00,50.0,49.0,-100.00,NNE,20,9.0,13.0,96,-99.99,,,-99.99,,2013-01-13 04:42:00,
2013-01-12 23:52:00,50.0,49.0,-100.00,NNE,20,9.0,13.0,96,-99.99,,,-99.99,,2013-01-13 04:52:00,